STARLINK-1656, 46353

Orbit data source: Space-Track

STARLINK-1656, 46353 is a payload satellite owned by SpaceX/Seattle (US) in LEO that was launched on Thu, 03 Sep 2020 UTC via an FALCON 9 launch vehicle from the Air Force Eastern Test Range (AFETR). Payload-class satellites include a variety of spacecraft equipped with specific instruments for various scientific and technological missions. These include communications satellites like Starlink; space stations such as the ISS; scientific satellites like the Hubble; Earth observation satellites from companies like Planet Labs, Umbra, and HawkEye 360; GPS; miniature CubeSats for education and research; and military/defense satellites.

Loading next visibility...
Identifier
46353, 2020-062AE
Orbit
LEO
Country
Flag of USUS
Related business
Manufacturer
SpaceX/Seattle
Mission
Operational Commercial Communications
Bus & Motor
STARLINK, Unknown motor
Mass
260 kg wet, ~248 kg dry
Launch date (UTC)
2020-09-03 (5 years ago)
Launch vehicle
FALCON 9
Launch site
Air Force Eastern Test Range (AFETR)
Object type
Payload
Rocket body
Debris
Shape & HBR
Box + 1 Pan, 10.1 m
Radar Cross Section
13.562 m², Large (>1 m²)

Expand to show TLE details & history
Last TLE update: 1 day ago

TLE from 1 day ago
0 STARLINK-1656
1 46353U 20062AE  25309.01054639 -.00004811  00000-0 -30438-3 0  9995
2 46353  53.0533 216.3259 0001288 100.0055 260.1080 15.06387044285516
Epoch: 2025-11-05T00:15Z
TLE epoch observation values (Epoch: 2025-11-05T00:15:11.208Z)
Latitude
0.00005°
Longitude
168.03988°
Altitude
548.284 km
Speed
7.589 km/s
True Right ascension
14h 25m 18s
True Declination
0° 00' 00"
Sunlit
Object was in daylight at epoch
Visualization orbit readout
Latitude
Unknown
Longitude
Unknown
Altitude
Unknown
Speed
Unknown
Apparent Right ascension
Unknown
Apparent Declination
Unknown
Sunlit
N/A
Visualization observer readout
Local Sidereal Time
22:15:49
Azimuth
Unknown
Elevation
Unknown
Doppler factor
Unknown
Orbital elements
Apogee altitude
548.414 km
Perigee altitude
546.63 km
Semi-major axis
6,925.659 km
Eccentricity
0.00013
Inclination
53.0533°
RAAN
216.3259°
Arg. of periapsis
100.0055°
True anomaly
260.09346°
Mean anomaly
260.108°
Eccentric anomaly
260.10073°
Mean motion
3.76575 °/min
Orbital period
95.6 mins
BSTAR
-0.00030438
Loading maneuver chart data...
Computing Atmospheric mass density...

Documentation

Showing up to 5 results
|